Vertical_Velocity
-0 -2 -1 -1 -4 -0 0 0 -1 -1 -2 -1 -1 0 -0 -1 -2 -1 0 1 -0 -1 1 -1 1 1 6 -2 1 0 3 4 0 -1 4 -2 2 2 3 -0 -1 0 11 1 -0 -1 4 -0 -0
-1 -1 -1 0 -2 3 -0 0 -0 -0 -0 -1 -0 -1 -0 -0 -1 1 0 -1 -1 -0 0 1 2 2 2 1 -1 5 -1 -2 -1 1 3 1 3 1 4 -2 -1 -0 1 -3 3 -1 -1 -0 0
-1 -0 2 -3 -0 4 1 -0 0 0 -1 -0 0 -1 0 1 1 1 -0 -1 -1 -0 0 -1 0 0 -1 1 1 -1 -3 -5 0 18 2 2 1 -1 4 2 0 3 -1 -3 4 -0 2 1 1
-3 2 -3 3 0 -0 -0 2 -0 -0 -0 -1 1 -0 -0 -1 -0 -0 -1 -0 -1 -1 -1 -0 1 -1 -1 2 0 -1 -1 -3 -3 -1 33 5 -2 10 9 1 -1 -4 1 3 1 0 4 -2 -0
-1 -3 0 2 1 -0 1 0 1 0 -1 -0 0 0 -2 -1 1 -0 -1 -2 -1 2 0 -0 -0 0 -1 3 1 -2 -0 -1 -4 -1 -5 4 -12 23 -3 4 6 5 3 2 -0 1 1 -1 -1
-3 -4 4 1 1 1 1 0 1 3 -0 -1 -2 1 -2 -1 1 -1 -1 -2 -1 -1 -2 -0 0 2 2 4 -0 4 2 -1 0 3 0 6 -2 0 5 5 7 6 5 -3 0 0 1 -1 -1
-2 2 2 -0 1 -2 0 2 1 1 -1 -1 -1 0 -1 -1 0 -1 -0 -1 -1 -1 -0 -0 -0 -0 1 -0 -1 3 -1 -1 0 0 -0 8 6 6 14 2 3 -2 -1 -2 3 -2 -2 -1 -0
-1 -1 1 -3 -1 3 -0 -0 1 1 0 0 -2 2 -1 -2 1 -1 -0 -0 -0 0 -1 -1 -0 -0 -1 -2 -2 -2 -2 -2 2 2 5 2 -2 -1 5 6 10 2 -1 -1 1 -0 -2 -0 0
0 -1 3 0 -2 1 0 -2 -1 -1 0 0 -1 0 -0 -3 -1 -1 -1 -1 -1 -1 -1 0 -1 0 -1 1 -1 -2 -10 -4 -3 2 0 3 2 1 -2 1 3 -2 -1 1 0 -3 -0 0 -1
-1 2 1 1 -2 -2 0 -2 0 -2 -1 -1 -0 0 -1 -2 -1 -0 1 -1 -1 -1 -1 -3 -1 -0 0 -0 1 -1 -0 -0 -2 -1 0 -0 1 -2 -3 -4 -3 -1 -2 -1 0 -2 -0 1 -1
1 2 -0 -0 -2 -1 -0 -1 -2 1 -1 -0 -0 1 -1 -2 0 1 1 -1 -1 -1 -2 -3 -1 -2 -2 -2 2 1 -0 0 -5 -1 -0 -2 -1 2 -1 -1 0 -2 -3 4 -1 0 0 1 -1
2 1 -0 -0 -0 -1 -2 1 -2 -1 0 -3 -1 0 1 1 -1 -1 -1 1 0 -0 -1 -3 -1 -1 -1 -1 -1 -1 -0 -1 2 -1 1 3 -0 0 -0 2 1 1 2 2 1 3 -1 -1 -0
3 3 -1 0 2 -2 -1 -2 -0 -1 1 -2 -2 -2 -0 -1 -1 -0 -0 0 2 -1 -0 -2 -2 -2 -1 -0 -0 0 -1 -0 1 2 -0 -0 -0 1 2 2 1 1 1 1 -0 -0 0 2 -1
3 3 2 0 0 -1 -2 -2 -0 -2 -1 -1 0 -0 -2 -1 -1 -2 -0 -1 2 -0 -1 -1 -2 -2 -2 -2 0 0 -0 1 -0 0 1 3 1 3 1 0 1 2 1 4 3 1 1 -1 0
1 2 0 0 0 -1 -3 -3 -3 1 -1 0 -1 1 1 -1 -2 0 -0 -1 -1 1 -1 1 -1 -2 -1 -1 -2 1 -2 -2 -1 0 0 2 1 2 2 2 2 0 -0 2 3 -1 -1 -2 -1
0 -1 0 1 1 -1 -3 -1 -1 -1 2 0 -2 -1 -2 -1 -1 -0 -0 -1 0 -1 -0 0 0 1 -1 -0 -0 -2 -0 -2 -0 -1 1 -1 0 -0 3 -2 -1 -1 1 2 0 1 -1 1 -0
2 2 -0 1 -0 0 -0 -1 -0 -2 -2 2 0 2 0 0 -1 -2 -2 -0 -0 -0 0 -0 0 -2 -2 -1 -0 -0 -1 -1 -1 -1 -2 -2 0 -0 -0 0 1 2 -1 6 1 -2 2 -0 1
-1 -2 0 -0 0 -1 1 0 -1 -1 -3 -3 -3 -3 -0 -1 -1 -1 -0 -1 -1 -1 -1 -1 -1 -1 -2 -2 -1 -0 1 0 -1 -0 -0 1 -0 -1 4 -0 1 1 3 -3 -2 -2 -1 -0 -1
1 -0 1 -0 -2 -0 1 1 0 0 -1 -2 -0 -2 -2 -0 -1 -1 -0 -0 -1 -1 -2 -1 2 -0 -1 -2 -0 -0 -1 -2 -1 1 -0 -2 0 1 -0 -0 0 -0 -0 -1 -2 -1 -2 -1 -6
2 3 0 -2 -0 -0 -1 1 0 3 2 -0 -2 -2 0 -0 -0 1 1 -1 0 -0 -1 -0 -1 1 -0 -2 -1 0 -0 -1 -0 -0 1 1 2 1 1 1 1 1 -1 1 0 -1 1 1 1
3 -2 -0 -1 -1 2 -1 2 1 1 0 0 0 -0 -1 -1 -2 -2 -0 1 -0 1 2 -0 -2 -2 -1 -1 -1 2 1 -1 -1 0 1 0 1 0 1 0 -1 -2 -1 -2 -2 -1 -0 -1 0
8 0 0 -1 -7 -0 -4 -1 -1 0 1 -0 -0 -0 -0 1 1 1 1 -1 -1 0 1 2 -2 1 -2 -1 -1 -0 2 2 0 -2 -1 -1 0 -1 -2 -1 -2 -2 -1 -2 -1 -0 -2 2 -0
0 -0 -0 -1 1 -4 4 4 -1 -3 -0 2 1 0 2 1 1 2 2 2 -1 -1 -1 -1 -2 -1 1 -1 -1 0 -2 -1 -2 0 0 -1 -0 -0 -0 -0 -1 -1 -1 -0 -2 -2 -3 -3 -0
-1 -2 -0 -1 -5 -4 -3 -4 1 1 -1 -4 -3 -1 -1 -0 1 0 -1 -0 1 -0 -2 -2 -1 -1 -1 0 2 -1 -2 1 0 -2 0 -0 0 1 -2 -2 -1 -0 -2 -3 -2 -0 -1 -1 -1
-2 -6 15 11 5 0 -3 0 -2 -0 -3 0 -1 0 1 1 1 1 0 -1 -0 -1 -2 -2 -2 -2 -2 -1 0 -2 -1 -2 0 0 -2 -3 -2 -2 -0 -0 -0 -0 -0 1 1 -0 -1 -1 0
-1 -1 9 3 4 1 1 3 -1 4 1 0 -1 1 0 -0 -1 -1 -1 -0 -1 -2 -0 2 1 -1 -3 -2 -1 0 -2 -0 -3 -1 -2 -2 -1 -1 -0 -1 -2 -3 -2 -1 -0 0 1 1 -0
2 0 -7 3 -3 5 5 -4 1 1 1 0 -0 2 2 1 -2 -1 -2 -1 -1 -0 -1 -0 2 1 -0 -4 -2 -1 0 -0 -0 -1 -0 -1 1 -0 -1 -2 -1 -0 -0 -0 -1 -1 -2 -1 -1
-6 -3 1 -9 -2 6 -4 -4 2 0 -2 -2 -1 1 -0 -1 -2 -2 -2 -2 -2 -1 1 2 0 1 -1 1 -1 -2 -2 -0 -0 2 0 -0 -4 -2 -1 2 1 0 -0 -0 -1 -0 -0 -0 -1
-4 -2 -4 -3 -4 3 9 3 -0 -0 -2 -1 -1 -1 -0 -2 -1 -2 1 1 1 -0 0 1 -0 0 0 -1 0 3 0 -2 1 -2 -2 -1 1 2 2 2 -1 -1 2 2 -0 -1 -1 -4 -2
-5 4 -0 4 -9 -6 -10 4 -1 -0 -2 -4 -3 -0 -3 -2 -1 -1 -2 -1 1 2 -1 -1 -3 -1 -0 2 1 -0 2 4 2 -0 0 -1 1 -2 -1 -3 -4 -1 -1 -0 -2 -2 1 -0 -1
Height
5891 5889 5888 5888 5889 5885 5883 5882 5881 5882 5882 5881 5880 5880 5881 5881 5880 5882 5880 5880 5881 5881 5881 5881 5883 5883 5883 5884 5883 5883 5883 5883 5882 5883 5884 5887 5887 5889 5892 5895 5898 5900 5901 5903 5904 5905 5907 5907 5908
5894 5891 5890 5890 5890 5887 5884 5883 5882 5882 5883 5882 5882 5881 5881 5882 5881 5882 5882 5882 5882 5882 5884 5883 5885 5885 5885 5885 5884 5884 5884 5884 5883 5883 5883 5886 5887 5889 5892 5895 5898 5901 5902 5904 5906 5907 5909 5909 5910
5896 5894 5893 5892 5890 5887 5883 5882 5881 5882 5883 5883 5884 5883 5883 5883 5884 5884 5884 5884 5884 5885 5886 5887 5887 5887 5886 5885 5885 5885 5884 5884 5882 5878 5882 5883 5886 5889 5892 5895 5898 5901 5904 5906 5908 5909 5911 5912 5913
5898 5897 5895 5894 5891 5889 5885 5883 5882 5882 5883 5885 5886 5885 5885 5885 5887 5887 5886 5885 5886 5887 5888 5889 5889 5889 5888 5887 5886 5885 5883 5883 5881 5874 5879 5882 5888 5890 5894 5897 5899 5901 5905 5908 5909 5911 5913 5914 5913
5901 5899 5898 5896 5893 5890 5887 5885 5884 5883 5883 5885 5887 5886 5886 5887 5888 5888 5887 5887 5887 5888 5889 5890 5890 5889 5888 5887 5888 5886 5885 5884 5882 5881 5883 5885 5888 5885 5894 5897 5899 5902 5906 5908 5910 5912 5915 5915 5915
5905 5902 5903 5898 5895 5891 5887 5885 5885 5885 5885 5886 5888 5888 5887 5889 5890 5889 5889 5888 5889 5890 5890 5891 5891 5891 5890 5890 5889 5889 5887 5885 5883 5882 5883 5888 5890 5892 5894 5897 5900 5902 5906 5909 5911 5914 5916 5916 5917
5908 5906 5904 5900 5896 5892 5889 5886 5886 5886 5886 5888 5890 5891 5890 5891 5892 5892 5891 5891 5892 5892 5892 5892 5892 5891 5891 5891 5891 5892 5890 5887 5885 5883 5885 5887 5890 5893 5896 5898 5901 5903 5908 5911 5913 5915 5917 5918 5918
5910 5909 5906 5902 5899 5896 5893 5889 5888 5887 5888 5890 5891 5893 5893 5892 5893 5895 5894 5895 5895 5894 5894 5893 5893 5893 5894 5893 5893 5893 5893 5891 5888 5887 5888 5888 5891 5894 5897 5899 5901 5905 5909 5913 5915 5916 5918 5918 5918
5913 5912 5910 5906 5903 5900 5896 5893 5891 5890 5891 5892 5893 5894 5895 5894 5895 5897 5897 5897 5897 5897 5897 5896 5895 5895 5895 5895 5894 5895 5894 5894 5892 5892 5891 5892 5895 5896 5898 5901 5903 5906 5912 5915 5916 5919 5919 5919 5920
5915 5915 5913 5910 5907 5902 5899 5896 5894 5893 5893 5894 5896 5896 5897 5897 5898 5900 5900 5900 5900 5900 5900 5899 5898 5897 5897 5897 5897 5897 5897 5896 5896 5896 5897 5896 5898 5899 5900 5904 5907 5912 5916 5916 5918 5921 5921 5921 5922
5918 5916 5915 5912 5909 5905 5902 5899 5898 5897 5896 5896 5897 5899 5899 5900 5902 5903 5903 5903 5903 5903 5903 5902 5901 5900 5900 5900 5899 5899 5899 5900 5899 5899 5900 5900 5902 5904 5907 5910 5912 5915 5917 5917 5921 5922 5923 5923 5924
5920 5918 5916 5913 5911 5909 5905 5903 5901 5900 5900 5899 5899 5900 5902 5903 5904 5905 5905 5905 5905 5906 5906 5905 5904 5903 5903 5901 5901 5901 5901 5902 5902 5903 5903 5905 5906 5908 5910 5911 5914 5916 5918 5920 5921 5922 5923 5924 5925
5921 5919 5918 5915 5913 5911 5908 5906 5905 5902 5901 5901 5901 5902 5903 5905 5906 5907 5907 5908 5907 5907 5907 5907 5906 5905 5906 5905 5904 5904 5904 5905 5906 5906 5907 5908 5909 5912 5913 5914 5917 5919 5920 5921 5923 5924 5926 5925 5927
5922 5921 5919 5917 5916 5913 5911 5909 5908 5905 5904 5903 5903 5904 5904 5905 5907 5908 5909 5910 5910 5909 5908 5908 5908 5908 5907 5908 5907 5907 5907 5907 5909 5908 5910 5910 5912 5914 5917 5918 5919 5920 5921 5922 5923 5925 5925 5926 5927
5922 5922 5921 5919 5917 5915 5914 5912 5909 5908 5907 5905 5906 5906 5906 5907 5908 5909 5910 5910 5911 5911 5910 5909 5909 5909 5909 5909 5910 5909 5909 5909 5911 5912 5914 5913 5914 5915 5916 5918 5920 5921 5922 5922 5924 5924 5925 5926 5926
5923 5924 5922 5921 5919 5917 5916 5914 5912 5911 5910 5909 5908 5909 5909 5908 5909 5910 5911 5911 5912 5912 5912 5911 5910 5910 5910 5910 5910 5911 5911 5912 5912 5912 5913 5914 5915 5916 5917 5919 5921 5921 5922 5923 5924 5924 5925 5925 5925
5927 5927 5925 5923 5921 5919 5918 5917 5915 5913 5913 5913 5912 5911 5911 5911 5911 5911 5911 5911 5912 5912 5912 5911 5911 5910 5910 5910 5911 5911 5912 5913 5913 5914 5916 5916 5917 5918 5919 5920 5921 5921 5922 5923 5924 5924 5924 5924 5924
5929 5928 5926 5925 5923 5920 5918 5917 5917 5916 5915 5915 5914 5914 5913 5913 5913 5913 5912 5912 5912 5911 5911 5911 5911 5910 5910 5910 5911 5912 5913 5913 5913 5914 5916 5916 5917 5918 5919 5920 5921 5922 5922 5923 5924 5924 5924 5924 5925
5929 5929 5928 5925 5923 5921 5919 5919 5919 5919 5917 5916 5915 5915 5915 5915 5915 5915 5913 5912 5912 5911 5911 5910 5911 5911 5911 5911 5912 5912 5912 5913 5913 5915 5916 5917 5919 5920 5920 5921 5921 5922 5922 5923 5923 5924 5924 5925 5923
5931 5931 5929 5927 5923 5921 5920 5921 5923 5922 5921 5919 5918 5918 5918 5917 5917 5916 5915 5914 5913 5912 5912 5911 5911 5912 5912 5912 5913 5913 5913 5913 5914 5915 5916 5917 5917 5918 5919 5919 5920 5920 5921 5921 5922 5922 5923 5923 5923
5934 5932 5931 5929 5926 5925 5923 5925 5926 5926 5924 5923 5922 5922 5921 5920 5919 5918 5916 5915 5915 5913 5912 5911 5910 5910 5911 5912 5913 5914 5914 5914 5914 5915 5916 5917 5917 5917 5917 5917 5918 5919 5919 5919 5920 5921 5920 5920 5921
5936 5933 5931 5930 5929 5930 5928 5930 5928 5928 5927 5926 5926 5925 5924 5923 5922 5920 5919 5917 5916 5914 5913 5911 5909 5908 5909 5911 5912 5913 5914 5914 5914 5914 5915 5916 5916 5916 5916 5916 5916 5917 5918 5917 5919 5919 5918 5919 5918
5934 5933 5933 5932 5933 5934 5933 5935 5932 5930 5928 5927 5927 5926 5925 5925 5924 5922 5920 5919 5917 5915 5913 5912 5910 5909 5909 5910 5910 5911 5912 5912 5913 5913 5914 5914 5915 5916 5916 5915 5915 5915 5915 5915 5916 5916 5916 5916 5915
5933 5934 5935 5935 5936 5937 5935 5936 5935 5933 5932 5931 5930 5928 5927 5926 5925 5923 5922 5920 5919 5916 5914 5912 5911 5910 5909 5909 5909 5909 5910 5910 5911 5911 5912 5911 5911 5912 5911 5911 5911 5911 5911 5912 5912 5912 5912 5912 5912
5933 5937 5944 5944 5942 5939 5937 5939 5936 5935 5933 5932 5931 5930 5929 5927 5926 5924 5922 5920 5919 5917 5916 5914 5912 5910 5909 5908 5909 5909 5910 5910 5910 5910 5910 5910 5909 5909 5909 5909 5908 5909 5909 5909 5908 5908 5908 5909 5910
5933 5938 5943 5942 5943 5942 5939 5940 5937 5936 5935 5934 5933 5932 5931 5929 5928 5925 5923 5921 5920 5919 5917 5916 5914 5912 5909 5908 5907 5907 5908 5909 5909 5909 5909 5910 5909 5909 5908 5907 5906 5905 5904 5904 5904 5904 5905 5906 5906
5934 5937 5936 5940 5940 5943 5942 5941 5939 5938 5936 5935 5935 5933 5931 5929 5929 5927 5925 5923 5921 5920 5918 5916 5915 5913 5911 5909 5908 5907 5907 5907 5907 5907 5907 5908 5906 5905 5904 5904 5904 5904 5903 5902 5901 5901 5901 5902 5903
5933 5936 5939 5939 5942 5943 5941 5942 5941 5938 5937 5936 5935 5934 5933 5931 5929 5928 5926 5925 5923 5921 5920 5918 5916 5914 5912 5911 5910 5910 5909 5907 5906 5906 5905 5905 5904 5903 5901 5901 5899 5899 5898 5899 5899 5899 5898 5897 5898
5933 5934 5936 5939 5939 5942 5944 5943 5938 5938 5938 5937 5937 5935 5934 5932 5930 5929 5928 5927 5925 5923 5921 5920 5918 5917 5914 5912 5911 5910 5909 5908 5907 5906 5904 5903 5902 5900 5899 5898 5897 5896 5896 5896 5895 5895 5894 5894 5893
5930 5934 5936 5941 5940 5938 5939 5942 5938 5938 5937 5936 5936 5935 5933 5932 5931 5929 5929 5928 5926 5924 5922 5920 5919 5917 5915 5913 5912 5910 5908 5905 5904 5904 5903 5902 5901 5900 5899 5897 5895 5893 5892 5892 5891 5889 5889 5890 5889